This demonstration page uses our WeatherBlox Daily Observations layout. Learn more.

Left ArrowRight Arrow

39.08367, -84.50855

Hourly Observations for July 19, 2017

Temp ( °F °C ) Dew Point ( °F °C ) Humidity (%) Winds ( mph kmh ) Pressure ( in mb ) Visibility ( mi km ) Precip ( " mm )
12:53 am 00:53 Clear with Mist and Fog 72 22.2 72 22.2 100 100 N N/A 30.07 1018 3 4.82802 N/A
1:53 am 01:53 Clear 72 22.2 72 22.2 100 100 N N/A 30.07 1018 7 11.26538 N/A
2:28 am 02:28 Clear with Mist and Fog 70 21.1 70 21.1 100 100 N N/A 30.06 1018 1.75 2.816345 N/A
2:45 am 02:45 Clear with Mist and Fog 70 21.1 70 21.1 100 100 N N/A 30.03 1017 3 4.82802 N/A
2:53 am 02:53 Clear with Mist and Fog 71 21.7 71 21.7 100 100 N N/A 30.06 1018 5 8.0467 N/A
3:11 am 03:11 Clear with Mist and Fog 71 21.7 71 21.7 100 100 N N/A 30.06 1018 1.75 2.816345 N/A
3:16 am 03:16 Clear with Mist and Fog 72 22.2 71 21.7 97 97 N N/A 30.06 1018 3 4.82802 N/A
3:20 am 03:20 Clear with Mist and Fog 71 21.7 71 21.7 100 100 N N/A 30.06 1018 1.75 2.816345 N/A
3:32 am 03:32 Clear with Mist and Fog 71 21.7 71 21.7 100 100 N N/A 30.06 1018 3 4.82802 N/A
3:42 am 03:42 Clear with Mist and Fog 71 21.7 71 21.7 100 100 N N/A 30.06 1018 1.75 2.816345 N/A
3:53 am 03:53 Clear with Mist and Fog 70 21.1 70 21.1 100 100 N N/A 30.06 1018 1 1.60934 N/A
4:01 am 04:01 Clear with Mist and Fog 70 21.1 70 21.1 100 100 N N/A 30.06 1018 4 6.43736 N/A
4:16 am 04:16 Partly Cloudy with Mist and Fog 70 21.1 70 21.1 100 100 N N/A 30.06 1018 2.5 4.02335 N/A
4:18 am 04:18 Mostly Cloudy with Mist and Fog 70 21.1 70 21.1 100 100 N N/A 30.06 1018 3 4.82802 N/A
4:28 am 04:28 Partly Cloudy with Mist and Fog 70 21.1 70 21.1 100 100 N N/A 30.06 1018 2.5 4.02335 N/A
4:44 am 04:44 Mostly Cloudy with Mist and Fog 70 21.1 70 21.1 100 100 N N/A 30.06 1018 1 1.60934 N/A
4:51 am 04:51 Partly Cloudy with Fog 70 21 70 21 100 100 N N/A 30.06 1018 0.5 0.80467 N/A
4:53 am 04:53 Partly Cloudy with Fog 71 21.7 71 21.7 100 100 N N/A 30.07 1018 0.5 0.80467 N/A
5:01 am 05:01 Mostly Cloudy with Mist and Fog 69 20.6 69 20.6 100 100 N N/A 30.06 1018 1.25 2.011675 N/A
5:08 am 05:08 Mostly Cloudy with Mist and Fog 69 20.6 69 20.6 100 100 N N/A 30.06 1018 3 4.82802 N/A
5:53 am 05:53 Mostly Clear with Mist and Fog 70 21.1 70 21.1 100 100 N N/A 30.08 1019 4 6.43736 N/A
6:15 am 06:15 Partly Cloudy with Mist and Fog 70 21.1 70 21.1 100 100 N N/A 30.09 1019 1.25 2.011675 N/A
6:23 am 06:23 Mostly Cloudy with Fog 70 21.1 70 21.1 100 100 N N/A 30.06 1018 0.5 0.80467 N/A
6:30 am 06:30 Partly Cloudy with Mist and Fog 70 21.1 70 21.1 100 100 N N/A 30.06 1018 3 4.82802 N/A
6:53 am 06:53 Partly Cloudy with Patchy Fog 70 21.1 70 21.1 100 100 N N/A 30.09 1019 4 6.43736 N/A
6:55 am 06:55 Partly Cloudy with Patchy Fog 70 21.1 70 21.1 100 100 N N/A 30.09 1019 4 6.43736 N/A
7:53 am 07:53 Hazy 73 22.8 72 22.2 96 96 N N/A 30.1 1019 5 8.0467 N/A
8:53 am 08:53 Sunny 77 25 73 22.8 88 88 N N/A 30.11 1020 10 16.0934 N/A
9:53 am 09:53 Sunny 81 27.2 72 22.2 74 74 N N/A 30.11 1020 10 16.0934 N/A
10:53 am 10:53 Mostly Sunny 83 28.3 74 23.3 74 74 N 3 6 30.11 1020 10 16.0934 N/A
11:53 am 11:53 Mostly Cloudy 85 29.4 73 22.8 68 68 N 6 9 30.11 1020 10 16.0934 N/A
12:53 pm 12:53 Partly Cloudy 86 30 69 20.6 57 57 N N/A 30.1 1019 10 16.0934 N/A
1:53 pm 13:53 Partly Cloudy 87 30.6 71 21.7 59 59 N 6 9 30.1 1019 10 16.0934 N/A
2:53 pm 14:53 Partly Cloudy 89 31.7 70 21.1 53 53 WSW 5 7 30.09 1019 10 16.0934 N/A
3:53 pm 15:53 Mostly Cloudy 88 31.1 70 21.1 55 55 SSW 5 7 30.07 1018 10 16.0934 N/A
4:53 pm 16:53 Partly Cloudy 90 32.2 69 20.6 50 50 N N/A 30.06 1018 10 16.0934 N/A
5:53 pm 17:53 Partly Cloudy 88 31.1 68 20 52 52 N N/A 30.06 1018 10 16.0934 N/A
6:53 pm 18:53 Partly Cloudy 88 31.1 68 20 52 52 WNW 8 13 30.06 1018 10 16.0934 N/A
7:53 pm 19:53 Sunny 85 29.4 68 20 57 57 WNW 7 11 30.06 1018 10 16.0934 N/A
8:53 pm 20:53 Sunny 83 28.3 67 19.4 59 59 NW 5 7 30.06 1018 10 16.0934 N/A
9:53 pm 21:53 Clear 76 24.4 70 21.1 82 82 N N/A 30.07 1018 10 16.0934 0.001 0.001
10:53 pm 22:53 Clear 72 22.2 69 20.6 91 91 N N/A 30.07 1018 10 16.0934 N/A
11:53 pm 23:53 Clear 71 21.7 69 20.6 94 94 N N/A 30.09 1019 10 16.0934 N/A

Powered by AerisWeather